Stations météo

réclame
Mon MeteoGroup
Chillingham Barns, Grande-Bretagne (99196): Température de l'air & dewpoint: 15.02.2019 14:00:00 - 21.02.2019 14:00:00 (GMT)Chillingham Barns, Grande-Bretagne (99196): Quantités de précipitations: 15.02.2019 14:00:00 - 21.02.2019 14:00:00 (GMT)
Date & Time tt [°C] td [°C] rr [mm]
21.02.2019 14:00:00 13,6 7,6 0,0
21.02.2019 13:00:00 13,4 7,4 0,0
21.02.2019 12:00:00 12,4 7,2 0,0
21.02.2019 11:00:00 13,4 8,7 0,0
21.02.2019 10:00:00 13,2 9,7 0,0
21.02.2019 09:00:00 12,2 9,3 0,0
21.02.2019 08:00:00 11,7 9,2 0,0
21.02.2019 07:00:00 11,0 8,7 0,0
21.02.2019 06:00:00 11,4 8,7 0,0
21.02.2019 05:00:00 11,4 8,5 0,0
21.02.2019 04:00:00 10,4 7,9 0,0
21.02.2019 03:00:00 10,4 8,2 0,0
21.02.2019 02:00:00 10,5 8,3 0,0
21.02.2019 01:00:00 10,4 8,5 0,0
21.02.2019 00:00:00 10,5 8,4 0,0
20.02.2019 23:00:00 10,5 8,4 0,0
20.02.2019 22:00:00 9,9 8,8 0,0
20.02.2019 21:00:00 10,2 8,4 0,0
20.02.2019 20:00:00 10,3 8,0 0,0
20.02.2019 19:00:00 9,8 8,0 0,0
20.02.2019 18:00:00 10,1 7,8 0,0
20.02.2019 17:00:00 10,4 7,6 0,0
20.02.2019 16:00:00 10,8 7,6 0,0
20.02.2019 15:00:00 - - -
20.02.2019 14:00:00 - - -
20.02.2019 13:00:00 - - -
20.02.2019 12:00:00 10,6 7,6 0,0
20.02.2019 11:00:00 10,7 7,0 0,0
20.02.2019 10:00:00 10,6 7,1 0,0
20.02.2019 09:00:00 10,2 6,6 0,0
20.02.2019 08:00:00 10,1 6,6 0,0
20.02.2019 07:00:00 10,1 6,5 0,0
20.02.2019 06:00:00 10,3 6,4 0,0
20.02.2019 05:00:00 9,4 6,4 0,0
20.02.2019 04:00:00 8,5 6,2 0,0
20.02.2019 03:00:00 7,7 5,8 0,0
20.02.2019 02:00:00 7,2 5,8 0,0
20.02.2019 01:00:00 6,7 5,3 0,2
20.02.2019 00:00:00 6,4 5,1 0,0
19.02.2019 23:00:00 6,5 5,0 0,2
19.02.2019 22:00:00 6,4 4,7 0,0
19.02.2019 21:00:00 6,7 4,4 0,0
19.02.2019 20:00:00 6,4 4,0 0,0
19.02.2019 19:00:00 7,8 3,5 0,0
19.02.2019 18:00:00 7,7 2,9 0,0
19.02.2019 17:00:00 7,7 2,1 0,0
19.02.2019 16:00:00 7,7 2,2 0,0
19.02.2019 15:00:00 7,9 2,4 0,0
19.02.2019 14:00:00 8,5 1,8 0,0
19.02.2019 13:00:00 8,6 2,2 0,0
19.02.2019 12:00:00 8,9 2,5 0,0
19.02.2019 11:00:00 8,0 3,5 0,0
19.02.2019 10:00:00 7,8 3,4 0,0
19.02.2019 09:00:00 6,7 3,6 0,0
19.02.2019 08:00:00 5,7 2,3 0,0
19.02.2019 07:00:00 5,9 2,4 0,0
19.02.2019 06:00:00 5,9 2,3 0,0
19.02.2019 05:00:00 5,9 2,8 0,0
19.02.2019 04:00:00 6,7 3,1 0,0
19.02.2019 03:00:00 6,0 2,4 0,0
19.02.2019 02:00:00 6,3 2,2 0,0
19.02.2019 01:00:00 6,4 2,4 0,0
19.02.2019 00:00:00 6,7 3,8 0,0
18.02.2019 23:00:00 7,0 3,3 0,0
18.02.2019 22:00:00 6,8 3,4 0,0
18.02.2019 21:00:00 7,1 3,5 0,0
18.02.2019 20:00:00 8,0 3,5 0,0
18.02.2019 19:00:00 8,1 3,7 0,0
18.02.2019 18:00:00 7,5 3,8 0,0
18.02.2019 17:00:00 7,5 3,4 0,0
18.02.2019 16:00:00 7,7 3,8 0,0
18.02.2019 15:00:00 8,9 3,2 0,0
18.02.2019 14:00:00 9,8 2,2 0,0
18.02.2019 13:00:00 9,4 1,7 0,0
18.02.2019 12:00:00 8,7 1,5 0,0
18.02.2019 11:00:00 8,4 2,6 0,0
18.02.2019 10:00:00 7,5 3,3 0,0
18.02.2019 09:00:00 7,5 4,9 0,0
18.02.2019 08:00:00 7,1 4,1 0,0
18.02.2019 07:00:00 6,9 3,7 0,0
18.02.2019 06:00:00 6,3 3,7 0,0
18.02.2019 05:00:00 7,0 3,8 0,0
18.02.2019 04:00:00 6,8 3,2 0,0
18.02.2019 03:00:00 6,8 3,4 0,0
18.02.2019 02:00:00 7,0 3,5 0,0
18.02.2019 01:00:00 6,8 3,2 0,0
18.02.2019 00:00:00 7,6 3,1 0,0
17.02.2019 23:00:00 7,9 3,0 0,0
17.02.2019 22:00:00 6,8 2,6 0,0
17.02.2019 21:00:00 7,7 2,1 0,0
17.02.2019 20:00:00 8,1 1,9 0,0
17.02.2019 19:00:00 8,3 3,0 0,0
17.02.2019 18:00:00 9,1 3,2 0,0
17.02.2019 17:00:00 10,2 3,3 0,0
17.02.2019 16:00:00 11,3 5,5 0,0
17.02.2019 15:00:00 12,0 6,3 0,0
17.02.2019 14:00:00 12,9 6,4 0,0
17.02.2019 13:00:00 13,4 6,3 0,0
17.02.2019 12:00:00 11,2 6,0 0,0
17.02.2019 11:00:00 - - 0,0
17.02.2019 10:00:00 9,0 4,9 0,0
17.02.2019 09:00:00 7,8 5,0 0,0
17.02.2019 08:00:00 7,3 4,6 0,0
17.02.2019 07:00:00 8,2 5,0 0,0
17.02.2019 06:00:00 8,3 5,5 0,0
17.02.2019 05:00:00 9,1 5,8 0,0
17.02.2019 04:00:00 10,4 6,6 0,0
17.02.2019 03:00:00 11,1 7,4 0,0
17.02.2019 02:00:00 10,9 7,8 0,0
17.02.2019 01:00:00 10,5 7,6 0,0
17.02.2019 00:00:00 9,7 7,0 0,0
16.02.2019 23:00:00 9,6 6,5 0,0
16.02.2019 22:00:00 9,3 5,8 0,0
16.02.2019 21:00:00 8,6 5,1 0,0
16.02.2019 20:00:00 6,6 3,4 0,0
16.02.2019 19:00:00 7,8 3,8 0,0
16.02.2019 18:00:00 8,7 4,6 0,0
16.02.2019 17:00:00 9,1 4,4 0,0
16.02.2019 16:00:00 10,0 4,7 0,0
16.02.2019 15:00:00 10,3 4,6 0,0
16.02.2019 14:00:00 10,1 4,3 0,0
16.02.2019 13:00:00 10,3 4,8 0,0
16.02.2019 12:00:00 9,5 4,6 0,0
16.02.2019 11:00:00 9,9 4,5 0,0
16.02.2019 10:00:00 9,7 5,2 0,0
16.02.2019 09:00:00 9,5 5,4 0,0
16.02.2019 08:00:00 9,3 5,1 0,0
16.02.2019 07:00:00 9,4 5,1 0,0
16.02.2019 06:00:00 9,6 5,2 0,0
16.02.2019 05:00:00 9,9 5,1 0,0
16.02.2019 04:00:00 10,1 5,7 0,0
16.02.2019 03:00:00 10,4 5,7 0,0
16.02.2019 02:00:00 10,9 5,5 0,0
16.02.2019 01:00:00 11,0 7,0 0,0
16.02.2019 00:00:00 11,5 6,0 0,0
15.02.2019 23:00:00 9,5 4,5 0,0
15.02.2019 22:00:00 9,8 3,9 0,0
15.02.2019 21:00:00 9,6 3,1 0,0
15.02.2019 20:00:00 9,8 2,9 0,0
15.02.2019 19:00:00 9,4 2,4 0,0
15.02.2019 18:00:00 11,0 2,6 0,0
15.02.2019 17:00:00 12,2 2,6 0,0
15.02.2019 16:00:00 12,8 2,7 0,0
15.02.2019 15:00:00 12,7 2,4 0,0
15.02.2019 14:00:00 12,4 1,8 0,0

tt = Température de l'air
td = dewpoint
rr = Quantités de précipitations

stations d'obs. à proximité